Zurück zum Katalog

STARLINK-37164

AktivKommunikationVLEO
NORAD 68324·PAYLOAD·🇺🇸 United States

Gestartet Mar 22, 2026 von Cape Canaveral Space Force Station

Loading…

Nächste Überflüge (nächste 24 Stunden)

TLE

AktuellSource: CelesTrak SupGP

Epoche: Sep 14, 2026, 15:24 UTC

1 68324C 26059D   26257.64215278  .00057313  00000+0  16930-2 0  2578
2 68324  53.1585 188.8839 0001566  86.8620 117.9189 15.34367759    12

Verfolge STARLINK-37164 in Echtzeit mit AllMySat

Download on the App Store